星链-3081 (STARLINK-3081 )

导读 | 星芒AI

STARLINK-3081 是 SpaceX 星链计划中的一颗低轨通信卫星,属于第 30 批发射的星链卫星群。该卫星旨在为全球用户提供高速互联网服务,特别关注网络覆盖不足的地区。它运行在约 550 公里的轨道高度,采用先进的推进系统和激光通信技术,以提升连接效率和稳定性。作为星链星座的一部分,STARLINK-3081 有助于构建更完善的全球宽带网络。

基本信息
目录编号:
49152
目录名称:
STARLINK-3081
国际标识:
2021-082Y
轨道中心:
EARTH
卫星名称:
星链-3081
卫星全名:
星链-3081 (STARLINK-3081 )
卫星状态:
已陨落 最后检测时间 2025-04-15
发射日期:
2021-09-14 UTC
国别 :
美国 (US)
星等 :
--
轨道信息
数据来源 国际轨道数据
星历时间: 2025-04-15T13:34:44+0800
轨道信息已过期199天
半长轴: 6555.022km
偏心率: 0.0013767
轨道倾角: 69.974°
近地点辐角 261.623°
升交点赤经 348.262°
平近点角 208.069°
近地点: 167.862km
远地点: 185.912km
周期: 88.028分钟
每日圈数: 16.358427
详细信息
固有亮度:
5
最大亮度:
2.5
卫星平台:
Starlink v1.5
覆盖范围:
全球
运营商:
太空探索技术公司
运营商所在国:
美国
制造商(研发单位):
太空探索技术公司
制造商所在国:
美国
使用方式:
暂无
卫星简介
星链(Starlink)计划是由太空探索技术公司(SpaceX)提出的一个巨型低轨卫星互联网星座项目,计划在2019年至2024年间在太空搭建由约1.2万颗卫星组成的“星链”网络,其中1584颗将部署在地球上空550千米处的近地轨道,并从2020年开始工作。该卫星仍在工作。